Vertical_Velocity
3 -2 6 -1 -2 9 8 13 -2 1 3 -6 1 2 -4 4 1 -0 -2 -5 -1 -0 -0 -4 -1 -3 -2 1 -4 -2 -0 0 -1 -2 -3 1 0 -1
2 7 -2 -2 14 13 2 10 9 2 -0 -3 2 8 1 0 1 -1 5 -2 2 2 -1 -2 -4 3 -2 -1 -3 -2 -1 -2 -3 -2 -1 -1 -3 -2
4 -2 10 8 5 8 9 2 -1 8 -5 -4 -6 4 8 2 0 -1 2 1 2 1 2 -6 -3 -1 1 -5 -1 -2 -1 -0 -3 -0 -2 -1 1 -1
-3 -4 5 4 -0 7 7 4 10 4 2 -5 -3 6 5 -1 0 -4 1 0 2 -4 -1 -2 -0 1 -4 -2 -2 -1 -1 2 -4 -3 -1 -3 1 -0
1 -2 9 -3 5 5 4 4 4 5 -1 -3 -5 0 2 2 -0 0 -2 -1 4 -1 -1 0 2 -0 -2 -2 -4 2 1 -4 -1 2 -0 -5 -4 -4
-2 -1 -0 -1 1 -6 1 5 7 -3 5 0 -2 2 2 -0 -3 -1 -4 4 2 -0 2 1 -2 -3 -0 -0 2 -3 -5 -1 -1 -2 -3 -3 -3 -3
-0 3 5 -1 10 3 -2 0 1 -5 1 3 5 -2 -4 -4 -3 4 0 -0 -0 -2 -1 -3 -1 -4 -5 3 -5 -3 -1 -1 -1 -3 -5 -6 -1 1
3 7 0 5 4 2 2 -2 1 0 1 7 1 1 -2 1 2 1 0 1 -5 -1 -1 -1 -4 -5 -2 1 -4 -0 -2 -2 -8 -5 -1 -1 -1 -1
2 1 2 10 6 3 -3 2 8 1 4 1 2 1 1 0 2 -3 -0 -4 0 0 -0 -1 -3 0 -3 -4 -1 -4 -4 -5 -3 -1 -1 -2 -3 -4
8 6 6 5 0 4 8 0 -1 0 6 7 -1 -3 -1 1 0 -3 -0 -1 -1 1 1 1 -0 -2 -3 -6 0 -1 -5 -3 -2 1 -2 -5 -4 -2
4 4 -0 5 3 -2 -4 -1 7 2 1 -0 -2 -1 -1 -1 -0 1 -0 -1 -3 2 1 -5 -4 2 -4 2 -2 -2 -3 1 1 -2 -3 -2 -4 -4
-2 -0 3 -0 -2 1 5 1 0 -3 -2 2 1 -1 -1 -0 -0 -1 -1 2 2 2 -2 -5 -5 -9 8 3 -4 -4 -0 1 2 0 -2 -3 -7 -7
3 3 2 2 2 -0 3 -1 -2 -0 -0 -1 -0 1 0 -0 1 2 0 -0 -2 -4 -5 -5 -5 -2 -3 -9 2 -5 -3 -1 -1 -3 -4 -5 -5 -7
3 1 -1 -0 1 -0 -3 -5 0 1 0 0 0 -0 1 0 -1 -1 -2 -2 -4 -2 -4 -5 -1 -4 -5 -3 -8 2 1 0 -8 -6 -3 -2 -0 3
-0 2 4 1 -2 -4 -2 1 -0 -1 -1 0 1 0 -1 -2 -3 -2 -2 -2 -1 -3 -1 -3 -5 -4 -4 -3 -9 -7 -13 4 -0 -7 0 -3 -8 -2
1 -2 -3 -5 -4 -0 1 -0 0 0 1 1 -1 -2 -2 -1 -1 -2 -1 -3 -3 -5 -5 -4 -4 -4 -0 -2 -7 -6 -2 -12 -2 -5 -1 -0 -5 -1
0 -3 -2 0 0 -0 -0 0 0 0 -0 -1 -0 -1 -2 -3 -1 -1 -2 -2 -3 -2 -1 -2 -3 -4 -3 -3 4 -3 -4 1 0 -4 -1 4 -2 -4
0 -0 0 0 -0 -1 -1 -0 -0 0 0 -1 -2 -2 -1 -1 -3 -2 -3 -2 -1 -2 -1 -2 -1 4 4 8 -7 -6 4 -1 1 -0 -2 -5 3 -1
-2 -0 -0 -1 -0 1 0 0 0 -1 -1 -1 -1 -1 -2 -2 -3 -3 -1 -3 -3 -2 -4 -4 -4 -4 -3 -1 8 -15 -5 1 3 4 -1 -3 -8 -3
-1 0 0 -0 -1 -1 -0 -0 -0 -0 -0 -0 -2 -3 -2 -2 -2 -1 -2 -2 -1 -2 -4 -4 -2 -3 -3 -6 -10 2 -9 -6 -1 1 3 7 1 -0
0 0 -1 -1 0 0 -0 -0 0 0 -1 -3 -3 -2 -1 -1 -0 -1 -2 -2 -3 -2 -2 -2 -1 -3 -3 -1 -0 2 3 -7 -9 -6 -2 1 2 5
0 0 -0 -0 -1 -0 0 0 -0 -2 -3 -1 -1 -1 -1 -1 -1 -2 -2 -3 -4 -3 -0 1 -2 -1 -1 -4 -3 -4 -1 5 -5 -5 -3 -7 -12 -10
1 1 -1 -1 0 0 -0 -1 -2 -2 -1 -0 -1 -1 -0 -1 -2 -2 -2 -3 -1 -2 0 1 -1 -3 -3 -2 -4 -1 -1 -1 -0 2 -2 -0 -2 -4
Height
3062 3065 3067 3071 3073 3075 3077 3078 3081 3082 3084 3087 3089 3090 3091 3090 3090 3090 3088 3088 3086 3084 3083 3081 3077 3075 3071 3066 3063 3058 3054 3048 3043 3038 3033 3028 3022 3017
3055 3059 3061 3063 3067 3069 3071 3073 3075 3077 3077 3081 3082 3084 3085 3085 3085 3083 3081 3081 3080 3077 3075 3072 3069 3066 3061 3058 3054 3049 3045 3039 3034 3029 3024 3018 3013 3007
3048 3052 3053 3058 3061 3062 3064 3066 3068 3070 3071 3075 3076 3078 3079 3078 3078 3077 3077 3074 3072 3069 3067 3064 3062 3056 3053 3051 3045 3040 3035 3030 3025 3019 3014 3008 3003 2996
3041 3044 3048 3051 3053 3055 3057 3059 3062 3064 3066 3067 3070 3072 3071 3071 3071 3071 3068 3066 3064 3062 3060 3057 3053 3048 3046 3041 3037 3032 3027 3020 3015 3009 3003 2998 2992 2985
3035 3039 3041 3044 3046 3048 3052 3054 3056 3058 3059 3062 3063 3064 3065 3065 3065 3064 3061 3058 3058 3056 3052 3047 3044 3041 3037 3033 3028 3023 3016 3010 3005 2999 2993 2988 2981 2974
3030 3032 3035 3038 3041 3044 3047 3049 3050 3051 3054 3055 3057 3058 3059 3058 3057 3055 3054 3053 3050 3048 3044 3040 3037 3032 3028 3024 3018 3012 3007 3002 2997 2991 2984 2977 2971 2963
3024 3027 3029 3033 3036 3039 3041 3043 3044 3046 3049 3051 3052 3052 3053 3051 3051 3050 3048 3046 3043 3040 3037 3032 3029 3024 3019 3014 3009 3004 2999 2994 2988 2981 2973 2966 2960 2953
3019 3021 3025 3028 3031 3033 3036 3038 3041 3042 3043 3045 3046 3045 3045 3046 3046 3045 3042 3040 3037 3035 3032 3027 3022 3017 3012 3007 3002 2996 2991 2985 2977 2970 2964 2957 2950 2941
3014 3016 3020 3023 3026 3029 3033 3035 3036 3037 3038 3039 3040 3041 3042 3042 3041 3039 3037 3034 3032 3029 3026 3020 3016 3012 3006 3002 2995 2987 2980 2974 2969 2962 2954 2946 2938 2931
3010 3014 3017 3021 3024 3026 3028 3030 3031 3032 3034 3035 3037 3038 3038 3036 3035 3034 3031 3028 3025 3022 3018 3014 3011 3007 3002 2995 2986 2978 2973 2968 2962 2953 2945 2938 2930 2922
3008 3011 3014 3017 3020 3022 3023 3026 3029 3030 3032 3033 3034 3034 3033 3032 3030 3028 3026 3023 3018 3015 3012 3008 3003 3001 2996 2989 2981 2974 2969 2961 2954 2947 2939 2930 2921 2913
3006 3009 3011 3014 3016 3020 3023 3025 3026 3028 3029 3030 3030 3030 3029 3028 3027 3023 3019 3016 3014 3011 3008 3003 2996 2988 2985 2984 2976 2968 2962 2956 2948 2940 2932 2924 2914 2904
3004 3007 3010 3013 3016 3018 3020 3022 3025 3026 3027 3027 3027 3026 3025 3023 3020 3018 3016 3014 3010 3005 3000 2996 2990 2984 2976 2966 2965 2960 2954 2947 2939 2932 2923 2915 2907 2898
3003 3006 3008 3011 3014 3017 3019 3021 3023 3024 3024 3024 3023 3021 3019 3018 3017 3014 3012 3008 3004 3000 2994 2988 2983 2976 2970 2964 2958 2954 2946 2940 2931 2923 2915 2906 2901 2895
3002 3005 3008 3011 3014 3017 3019 3020 3021 3020 3020 3020 3019 3018 3017 3015 3012 3010 3006 3002 2997 2992 2988 2982 2977 2972 2965 2959 2951 2947 2939 2933 2926 2917 2911 2901 2893 2889
3003 3006 3009 3012 3015 3017 3018 3018 3019 3019 3018 3018 3016 3015 3013 3010 3007 3004 3000 2996 2991 2985 2980 2976 2972 2967 2963 2956 2948 2943 2939 2928 2920 2912 2906 2899 2891 2884
3004 3008 3011 3013 3014 3016 3016 3017 3017 3016 3016 3015 3013 3011 3009 3006 3003 3000 2996 2992 2987 2983 2979 2974 2969 2965 2960 2953 2947 2942 2935 2927 2918 2909 2902 2897 2890 2882
3006 3009 3011 3012 3013 3015 3015 3015 3014 3014 3013 3012 3010 3007 3005 3002 2999 2995 2991 2987 2982 2979 2975 2971 2968 2965 2960 2955 2944 2938 2932 2923 2916 2909 2901 2894 2889 2881
3006 3008 3010 3012 3013 3013 3013 3013 3012 3011 3010 3008 3006 3004 3002 2998 2995 2990 2986 2982 2977 2973 2970 2967 2963 2958 2954 2951 2946 2932 2926 2922 2917 2910 2902 2894 2886 2880
3006 3008 3009 3010 3011 3011 3011 3010 3010 3009 3007 3006 3003 3000 2997 2993 2989 2986 2983 2979 2975 2971 2968 2964 2960 2955 2950 2944 2938 2934 2925 2919 2913 2908 2903 2896 2888 2882
3005 3007 3007 3008 3009 3009 3009 3008 3007 3006 3005 3002 2999 2995 2992 2988 2985 2982 2979 2976 2973 2970 2966 2962 2958 2954 2949 2945 2939 2934 2927 2918 2911 2906 2900 2894 2889 2883
3003 3005 3006 3007 3007 3007 3007 3006 3005 3003 3001 2997 2994 2991 2987 2984 2981 2978 2975 2972 2970 2967 2964 2961 2957 2953 2948 2943 2937 2931 2926 2921 2911 2905 2899 2892 2884 2878
3002 3003 3004 3006 3006 3006 3005 3003 3001 2999 2996 2993 2989 2986 2983 2980 2977 2975 2972 2970 2967 2965 2962 2959 2956 2951 2947 2941 2935 2930 2924 2919 2914 2908 2900 2894 2887 2881